{"data":{"norad_id":54785,"epoch":"2026-09-20T21:26:42.681984Z","epoch_age_seconds":55842,"freshness":"FRESH","line1":"1 54785U 22175AD  26263.89354956  .00000028  00000+0  11953-4 0  9996","line2":"2 54785  53.1591 177.8539 0001260  94.1514 265.9633 15.34388567210364","mean_motion":15.34388567,"eccentricity":0.000126,"inclination_deg":53.1591,"raan_deg":177.8539,"arg_perigee_deg":94.1514,"mean_anomaly_deg":265.9633,"bstar":1.1953e-5,"rev_number":21036,"period_min":93.848457357542,"perigee_km":461.87527155157,"apogee_km":463.59917185544,"semimajor_km":6840.8742217035,"source":"CELESTRAK","updated_at":"2026-09-21T09:00:33.125717Z"}}